Powrót do katalogu

ASAP-S

AktywnyNaukaPO
NORAD 38013·PAYLOAD·🇫🇷 France

Wystrzelony Dec 17, 2011 z Guiana Space Centre

Loading…

Następne Przeloty (najbliższe 24 godziny)

TLE

ŚwieżeSource: Space-Track

Epoka: Sep 14, 2026, 05:45 UTC

1 38013U 11076G   26257.23973182  .00008712  00000-0  33520-3 0  9991
2 38013  98.0203 193.8758 0005735 189.0627 171.0508 15.26646825806419

Śledź ASAP-S w czasie rzeczywistym z AllMySat

Download on the App Store